[[{"header":{"parameterUnit":"m.s-1","parameterCategory":1,"la1":30.2991,"la2":30.254,"lo1":-89.0895,"lo2":-89.0444,"dy":0.0017,"dx":0.0017,"nx":28,"ny":28,"refTime":"2025-01-11T09:00:00:Z","depth":0,"parameterNumber":2,"parameterNumberName":"U-component_of_WINDS"},"data":[0,0,0,0,0,0,0,0,0,0,0,0,0,0,0,0,0,0,0,0,0,0,0,0,0,0,0,0,0,0,0,0,0,0,0,0,0,0,0,0,0,0,0,0,0,0,0,0,0,0,0,0,0,0,0,0,0,0,-2.4025,-2.4026,0,-2.4126,-2.4127,-2.4128,-2.4139,-2.4138,-2.4137,-2.4136,-2.4238,-2.4242,-2.4245,0,0,0,0,0,0,0,0,0,0,0,0,0,-2.384,-2.3843,-2.4025,-2.4026,-2.4028,-2.4126,-2.4127,-2.4129,-2.414,-2.4138,-2.4137,-2.4136,-2.4237,-2.4241,-2.4246,0,0,0,0,0,0,0,0,0,0,0,0,0,-2.3928,-2.3844,-2.4025,-2.4045,-2.4048,-2.4126,-2.4127,-2.4129,-2.414,-2.4138,-2.4137,-2.4135,-2.4236,-2.4241,-2.4246,-2.4311,0,0,-2.4263,-2.4265,0,0,0,0,0,0,0,0,-2.3923,-2.3935,-2.4041,-2.4044,-2.4047,-2.4119,-2.4099,-2.419,-2.414,-2.4105,-2.4136,-2.4135,-2.4199,-2.4208,-2.423,-2.4316,-2.432,-2.4264,-2.4267,-2.4269,-2.4271,0,0,0,0,0,0,0,-2.3917,-2.3931,-2.4065,-2.4042,-2.4046,-2.4048,-2.4059,-2.4117,-2.4159,-2.4108,-2.4109,-2.4121,-2.4201,-2.4225,-2.4233,-2.4321,-2.4263,-2.4268,-2.4272,-2.4274,-2.4464,-2.4466,0,0,0,0,0,0,-2.3907,-2.3926,-2.4062,-2.4068,-2.398,-2.4053,-2.4065,-2.4097,-2.4159,-2.4167,-2.4122,-2.4121,-2.4216,-2.4226,-2.4236,-2.4315,-2.4269,-2.4274,-2.4277,-2.4462,-2.4464,-2.4466,0,0,0,0,0,0,-2.3903,-2.3919,-2.4058,-2.3997,-2.4015,-2.4058,-2.4094,-2.41,-2.4124,-2.417,-2.4177,-2.4139,-2.4215,-2.4228,-2.4292,-2.4319,-2.4277,-2.4282,-2.446,-2.4463,-2.4465,-2.4473,0,0,0,0,0,0,-2.3898,-2.3918,-2.3943,-2.3998,-2.4018,-2.4112,-2.4095,-2.4103,-2.4133,-2.4133,-2.4187,-2.4195,-2.4215,-2.4284,-2.4298,-2.4325,-2.4286,-2.4458,-2.4461,-2.4464,-2.4471,-2.4476,-2.448,0,0,0,0,0,-2.3891,-2.3942,-2.3945,-2.3961,-2.4051,-2.4114,-2.4126,-2.4149,-2.4136,-2.4161,-2.419,-2.4193,-2.4314,-2.429,-2.4306,-2.4336,-2.4456,-2.446,-2.4464,-2.4469,-2.4475,-2.448,0,0,0,0,0,0,-2.3889,-2.3949,-2.3953,-2.4022,-2.4063,-2.4116,-2.4149,-2.4155,-2.4199,-2.4197,-2.4223,-2.4235,-2.4298,-2.4323,-2.4296,-2.4401,-2.4384,-2.4391,-2.4382,-2.4388,-2.4393,-2.4385,-2.4291,0,0,0,0,0,-2.3896,-2.3943,-2.3993,-2.4049,-2.407,-2.4106,-2.4134,-2.4148,-2.4191,-2.4208,-2.4242,-2.4283,-2.433,-2.4361,-2.4407,-2.4475,-2.4486,-2.4503,-2.4508,-2.4512,-2.4517,-2.4554,-2.4562,-2.4479,-2.4479,-2.4479,0,0,-2.3912,-2.3951,-2.3979,-2.405,-2.4083,-2.413,-2.412,-2.417,-2.4205,-2.4216,-2.4278,-2.4304,-2.4352,-2.4418,-2.4448,-2.4441,-2.4543,-2.4517,-2.4519,-2.4523,-2.4559,-2.4567,-2.4574,-2.4482,-2.4481,-2.4481,0,0,-2.3965,-2.4,-2.405,-2.4083,-2.4134,-2.4157,-2.4169,-2.4221,-2.4239,-2.4302,-2.4311,-2.4353,-2.4434,-2.4467,-2.4494,-2.456,-2.4563,-2.4574,-2.4598,-2.4634,-2.464,-2.4646,-2.4668,-2.4676,-2.4579,-2.458,-2.458,0,-2.3978,-2.405,-2.4075,-2.4125,-2.4156,-2.4168,-2.4218,-2.4249,-2.4312,-2.4333,-2.4324,-2.4425,-2.4458,-2.4531,-2.4547,-2.457,-2.4583,-2.4567,-2.4637,-2.4644,-2.4649,-2.4671,-2.4679,-2.458,-2.458,-2.458,-2.458,0,-2.4064,-2.4113,-2.4148,-2.4208,-2.4243,-2.4293,-2.4324,-2.4356,-2.4368,-2.4392,-2.4455,-2.4495,-2.4549,-2.4568,-2.4579,-2.4643,-2.4636,-2.4632,-2.4615,-2.4658,-2.4678,-2.4687,-2.4582,-2.4581,-2.4581,-2.4581,0,0,-2.4118,-2.4191,-2.4203,-2.423,-2.4287,-2.4325,-2.4375,-2.4429,-2.4455,-2.4498,-2.454,-2.4608,-2.4605,-2.4636,-2.4651,-2.4683,-2.4731,-2.4675,-2.4676,-2.4683,-2.4802,-2.4804,-2.4813,-2.4734,-2.4735,-2.4737,-2.4797,0,-2.4176,-2.4267,-2.429,-2.4366,-2.4412,-2.4424,-2.4468,-2.4507,-2.4531,-2.4572,-2.4599,-2.4646,-2.4639,-2.4657,-2.4689,-2.4718,-2.4755,-2.4714,-2.4772,-2.4774,-2.4759,-2.4824,-2.4826,-2.4881,-2.4806,-2.4807,-2.4808,0,-2.4257,-2.4301,-2.4382,-2.4432,-2.4452,-2.4491,-2.4541,-2.4581,-2.4625,-2.4641,-2.4675,-2.4688,-2.474,-2.4721,-2.4792,-2.4764,-2.4789,-2.4807,-2.481,-2.4815,-2.4793,-2.483,-2.49,-2.4907,-2.4821,-2.482,-2.4819,0,-2.4286,-2.4367,-2.4426,-2.4449,-2.4508,-2.4535,-2.4561,-2.4604,-2.4634,-2.4678,-2.4698,-2.4747,-2.4774,-2.4811,-2.4836,-2.482,-2.4905,-2.4888,-2.4918,-2.4918,-2.4935,-2.4933,-2.5009,-2.4953,-2.4953,-2.4953,-2.4953,0,-2.4349,-2.4398,-2.444,-2.4476,-2.453,-2.4557,-2.461,-2.4636,-2.4674,-2.4715,-2.4729,-2.4766,-2.4798,-2.484,-2.4859,-2.4915,-2.4927,-2.494,-2.4945,-2.4939,-2.4937,-2.4955,-2.4951,-2.4955,-2.4955,-2.4954,-2.4954,0,-2.4391,-2.4421,-2.4486,-2.4537,-2.4551,-2.4589,-2.4633,-2.4668,-2.4692,-2.4744,-2.4757,-2.4796,-2.4846,-2.4874,-2.4937,-2.4951,-2.5012,-2.5015,-2.4997,-2.4999,-2.5027,-2.5023,-2.5116,-2.5129,-2.5065,-2.5066,-2.5066,0,-2.4429,-2.4467,-2.4522,-2.455,-2.4577,-2.4623,-2.4653,-2.468,-2.4712,-2.4765,-2.4793,-2.4844,-2.4886,-2.4965,-2.4998,-2.5046,-2.505,-2.5079,-2.5057,-2.505,-2.5049,-2.5046,-2.505,-2.5082,-2.5083,-2.5083,-2.5084,0,-2.4492,-2.4505,-2.4549,-2.4598,-2.4634,-2.4675,-2.4714,-2.4737,-2.477,-2.4805,-2.4856,-2.4889,-2.4953,-2.5003,-2.5054,-2.508,-2.5087,-2.5091,-2.51,-2.5093,-2.5081,-2.5087,-2.5006,-2.5088,-2.5088,-2.5087,-2.5087,-2.5087,-2.4532,-2.4566,-2.461,-2.4659,-2.4691,-2.4728,-2.4763,-2.4792,-2.4835,-2.489,-2.4903,-2.4957,-2.4999,-2.5068,-2.5096,-2.5138,-2.5132,-2.5146,-2.5149,-2.5152,-2.5152,-2.5075,-2.5147,-2.5147,-2.5147,-2.5147,-2.5147,0,-2.4595,-2.4624,-2.4668,-2.4723,-2.4761,-2.4765,-2.4809,-2.4841,-2.4888,-2.4927,-2.4968,-2.5026,-2.5075,-2.5112,-2.5161,-2.5188,-2.5192,-2.5199,-2.5197,-2.5203,-2.5155,-2.5141,-2.5195,-2.5195,-2.5195,-2.5195,-2.5195,-2.5195,-2.4632,-2.4689,-2.4707,-2.478,-2.4809,-2.4862,-2.4886,-2.492,-2.4951,-2.5016,-2.5056,-2.508,-2.5118,-2.517,-2.5215,-2.5224,-2.5241,-2.5248,-2.5258,-2.5212,-2.5206,-2.5201,-2.5189,-2.5252,-2.5252,-2.5302,-2.5303,-2.5303]},{"header":{"parameterUnit":"m.s-1","parameterCategory":1,"la1":30.2991,"la2":30.254,"lo1":-89.0895,"lo2":-89.0444,"dy":0.0017,"dx":0.0017,"nx":28,"ny":28,"refTime":"2025-01-11T09:00:00:Z","depth":0,"parameterNumber":3,"parameterNumberName":"V-component_of_WINDS"},"data":[0,0,0,0,0,0,0,0,0,0,0,0,0,0,0,0,0,0,0,0,0,0,0,0,0,0,0,0,0,0,0,0,0,0,0,0,0,0,0,0,0,0,0,0,0,0,0,0,0,0,0,0,0,0,0,0,0,0,1.0986,1.0986,0,1.0935,1.0935,1.0934,1.0849,1.0848,1.0846,1.0845,1.0794,1.0794,1.0794,0,0,0,0,0,0,0,0,0,0,0,0,0,1.1012,1.1012,1.0986,1.0986,1.0985,1.0935,1.0934,1.0934,1.085,1.0848,1.0846,1.0844,1.0794,1.0794,1.0794,0,0,0,0,0,0,0,0,0,0,0,0,0,1.0985,1.1012,1.0986,1.0937,1.0932,1.0935,1.0934,1.0934,1.085,1.0848,1.0845,1.0843,1.0794,1.0794,1.0794,1.0842,0,0,1.0795,1.0795,0,0,0,0,0,0,0,0,1.0986,1.0984,1.0945,1.094,1.0935,1.0896,1.0925,1.0903,1.0851,1.0881,1.0845,1.0842,1.083,1.0827,1.0822,1.084,1.0838,1.0795,1.0795,1.0795,1.0795,0,0,0,0,0,0,0,1.0988,1.0986,1.0966,1.0944,1.0938,1.0918,1.0911,1.092,1.0869,1.0878,1.0872,1.0867,1.0827,1.0823,1.0821,1.0837,1.0795,1.0795,1.0795,1.0795,1.089,1.0892,0,0,0,0,0,0,1.0997,1.0988,1.0968,1.0964,1.0955,1.0919,1.0912,1.0911,1.0869,1.086,1.0869,1.0863,1.0823,1.0821,1.0819,1.0871,1.0795,1.0795,1.0795,1.0887,1.089,1.0893,0,0,0,0,0,0,1.0998,1.0996,1.097,1.0974,1.0969,1.0921,1.0921,1.0911,1.0907,1.0862,1.0853,1.0874,1.0821,1.0818,1.0836,1.0868,1.0795,1.0795,1.0884,1.0888,1.0892,1.0977,0,0,0,0,0,0,1.0999,1.0997,1.1015,1.0975,1.0969,1.0988,1.0923,1.0912,1.0907,1.0899,1.0864,1.0856,1.0819,1.0837,1.0837,1.0867,1.0795,1.0881,1.0886,1.089,1.0971,1.0983,1.0993,0,0,0,0,0,1.1001,1.1041,1.1016,1.1014,1.099,1.099,1.0987,1.0943,1.091,1.0927,1.0898,1.0857,1.0865,1.0839,1.0839,1.0869,1.0879,1.0885,1.089,1.0966,1.0981,1.0993,0,0,0,0,0,0,1.1086,1.1035,1.1007,1.1036,1.1018,1.0976,1.0996,1.096,1.0952,1.0945,1.0891,1.0884,1.0909,1.0891,1.0864,1.0913,1.0866,1.0871,1.0924,1.0937,1.0948,1.0951,1.0795,0,0,0,0,0,1.1108,1.1112,1.1068,1.1098,1.109,1.1045,1.1044,1.1012,1.0991,1.0983,1.0956,1.0938,1.0936,1.0936,1.0932,1.0968,1.0959,1.0989,1.1,1.101,1.1015,1.1032,1.1044,1.0911,1.0911,1.0911,0,0,1.1154,1.1127,1.1133,1.1114,1.1097,1.1102,1.1039,1.1048,1.1051,1.0985,1.0999,1.0979,1.0955,1.0983,1.0994,1.0969,1.105,1.1017,1.1024,1.1024,1.1039,1.1051,1.1063,1.0914,1.0914,1.0913,0,0,1.124,1.122,1.1243,1.1226,1.12,1.117,1.1176,1.1139,1.1122,1.1137,1.1086,1.109,1.1088,1.1073,1.1065,1.1146,1.1107,1.1146,1.1204,1.1221,1.1231,1.1241,1.1268,1.1279,1.1152,1.1152,1.1152,0,1.13,1.1306,1.1259,1.127,1.1263,1.1203,1.1225,1.1212,1.1186,1.1183,1.1155,1.1151,1.1131,1.1154,1.1173,1.1169,1.1173,1.1149,1.1234,1.1242,1.125,1.1276,1.1286,1.1157,1.1156,1.1156,1.1155,0,1.1381,1.1386,1.1407,1.1383,1.1379,1.1396,1.1351,1.1353,1.1321,1.1294,1.1309,1.1283,1.1272,1.1275,1.1245,1.1293,1.1278,1.1244,1.1194,1.1268,1.1291,1.1301,1.1164,1.1162,1.116,1.1159,0,0,1.1518,1.1468,1.1476,1.1464,1.1431,1.1434,1.1449,1.1437,1.1439,1.1424,1.1434,1.1434,1.1401,1.1392,1.136,1.1375,1.1439,1.1338,1.1336,1.1356,1.1489,1.1515,1.1527,1.1414,1.1416,1.1417,1.1491,0,1.1596,1.1617,1.1575,1.1606,1.1609,1.1552,1.1564,1.1546,1.1521,1.152,1.1493,1.1493,1.145,1.1444,1.1457,1.1429,1.1465,1.1423,1.1422,1.1423,1.1428,1.1539,1.1567,1.1637,1.15,1.1501,1.1502,0,1.169,1.1678,1.1709,1.1674,1.1674,1.1686,1.1671,1.1672,1.165,1.1631,1.1621,1.1583,1.1594,1.1548,1.1562,1.1535,1.1532,1.1518,1.152,1.1517,1.1466,1.1538,1.1659,1.1669,1.1516,1.1515,1.1514,0,1.1785,1.1778,1.1795,1.1787,1.1746,1.1756,1.1739,1.1715,1.1711,1.1699,1.1695,1.1686,1.168,1.1673,1.1633,1.1603,1.1652,1.1603,1.1636,1.1637,1.1647,1.1647,1.1768,1.1649,1.1648,1.1648,1.1648,0,1.1875,1.1896,1.1837,1.1847,1.1869,1.1821,1.1844,1.1822,1.1801,1.1806,1.1757,1.1763,1.171,1.1711,1.168,1.1696,1.1694,1.1678,1.167,1.1682,1.1684,1.1678,1.1672,1.1651,1.165,1.165,1.1649,0,1.1985,1.1946,1.1961,1.1921,1.1912,1.193,1.1896,1.1904,1.1876,1.1884,1.1883,1.1839,1.1837,1.1797,1.1786,1.1765,1.1793,1.1776,1.1801,1.1794,1.1829,1.1826,1.195,1.1963,1.1837,1.1838,1.1839,0,1.2044,1.2059,1.2021,1.2021,1.2007,1.2007,1.2003,1.1956,1.1953,1.1929,1.194,1.1934,1.1926,1.1925,1.1893,1.1884,1.1865,1.1909,1.1864,1.1875,1.1864,1.1863,1.1864,1.1919,1.192,1.1922,1.1923,0,1.2154,1.2134,1.2129,1.2117,1.2113,1.2102,1.2087,1.209,1.2039,1.2039,1.2035,1.203,1.2018,1.2012,1.1998,1.1981,1.1943,1.1938,1.1944,1.1956,1.1969,1.1961,1.1825,1.1935,1.1933,1.1933,1.1932,1.1931,1.2238,1.2248,1.2223,1.2219,1.2204,1.2191,1.2197,1.217,1.2166,1.2153,1.2126,1.2127,1.2104,1.2081,1.2067,1.2067,1.2044,1.2055,1.2057,1.206,1.2066,1.1971,1.2065,1.2064,1.2064,1.2063,1.2063,0,1.2344,1.2325,1.2322,1.2303,1.23,1.2265,1.2248,1.2247,1.2249,1.223,1.2224,1.222,1.2214,1.2181,1.2171,1.2177,1.216,1.2176,1.2175,1.2171,1.2088,1.2082,1.2191,1.2191,1.2191,1.2191,1.2191,1.2191,1.2398,1.2413,1.239,1.2397,1.2377,1.2378,1.2371,1.2359,1.2344,1.2342,1.2336,1.2315,1.2291,1.2279,1.2272,1.2262,1.226,1.2282,1.2267,1.2189,1.2177,1.2165,1.216,1.2283,1.2283,1.235,1.235,1.2351]}]]